Location: Holyhead Bay
(53.3667°N, 4.6667°W)
Time: 18:55:52
(UTC+00:00)

Helios 1A Rocket - Pass Details

Date: 24 November 2020
Orbit: 564 x 585 km, 98.3° (Epoch: 17 January)

Event Time Altitude Azimuth Distance (km) Brightness Sun altitude
Exits shadow 17:06:09 - 112° (ESE) 2,673 5.9 -8.1°
Reaches altitude 10° 17:08:47 10° 90° (E) 1,867 5.0 -8.5°
Maximum altitude 17:11:07 15° 55° (NE) 1,561 4.5 -8.8°
Drops below altitude 10° 17:13:27 10° 19° (NNE) 1,873 5.1 -9.1°
Sets 17:16:20 0° 357° (N) 2,776 6.2 -9.5°
